Skip Page Navigation
NASA JPL Caltech
NASA Logo - Jet Propulsion Laboratory + View the NASA Portal
+ Center for Near-Earth Object Studies
JPL Home Earth Solar System Stars & Galaxies Technology
JPL Solar System Dynamics
BODIES ORBITS EPHEMERIDES TOOLS PHYSICAL DATA DISCOVERY FAQ SITE MAP
IMPORTANT: The SSD Announcement email list is now available. Major changes are coming in the near future, including possible hostname and/or URL changes. To be notified of such changes, subscribe to this email list.

Please visit this page for more details.


JPL Small-Body Database Browser
Search: [ help ]  
17206 (2000 AJ125)
Classification: Main-belt Asteroid          SPK-ID: 2017206
Ephemeris | Orbit Diagram | Orbital Elements | Mission Design | Physical Parameters | Discovery Circumstances | Close-Approach Data ]

[ show orbit diagram ]
Orbital Elements at Epoch 2458600.5 (2019-Apr-27.0) TDB
Reference: JPL 28 (heliocentric ecliptic J2000)
 Element Value Uncertainty (1-sigma)   Units 
e .05726210637524167 3.3061e-08  
a 3.157049191447893 2.192e-08 au
q 2.976269904815334 1.0649e-07 au
i 9.044444417527988 4.3008e-06 deg
node 154.1251542101024 2.4026e-05 deg
peri 276.781166073216 4.6423e-05 deg
M 208.0594557951165 3.8646e-05 deg
tp 2459465.252103327617
(2021-Sep-07.75210333)
0.00021883 TDB
period 2048.898526901134
5.61
2.1338e-05
5.842e-08
d
yr
n .1757041626382951 1.8299e-09 deg/d
Q 3.337828478080453 2.3175e-08 au
  Orbit Determination Parameters
   # obs. used (total)      1741  
   data-arc span      25342 days (69.38 yr)  
   first obs. used      1950-04-17  
   last obs. used      2019-09-04  
   planetary ephem.      DE431  
   SB-pert. ephem.      SB431-N16  
   condition code      0  
   norm. resid. RMS      .50272  
   source      ORB  
   producer      Otto Matic  
   solution date      2019-Sep-24 01:23:50  

Additional Information
 Earth MOID = 2.00858 au 
 Jupiter MOID = 1.83909 au 
 T_jup = 3.184 
[ show covariance matrix ]

Ephemeris | Orbit Diagram | Orbital Elements | Mission Design | Physical Parameters | Discovery Circumstances | Close-Approach Data ]

Physical Parameter Table
Parameter Symbol Value Units Sigma Reference Notes
absolute magnitude H 12.9   n/a MPO358797  
diameter diameter 13.502 km 0.351 urn:nasa:pds:neowise_diameters_albedos::2.0[mainbelt] (http://adsabs.harvard.edu/abs/2011ApJ...741...68M)  
geometric albedo albedo 0.081   0.008 urn:nasa:pds:neowise_diameters_albedos::2.0[mainbelt] (http://adsabs.harvard.edu/abs/2011ApJ...741...68M)  

17206 (2000 AJ125)          Discovered 2000-Jan-05 by LINEAR at Socorro
Reference: 20000913/Numbers.arcLast Updated: 2004-04-19

[ show close-approach data ]
Alternate Designations
 2000 AJ125 = 1986 RQ8 
Ephemeris | Orbit Diagram | Orbital Elements | Mission Design | Physical Parameters | Discovery Circumstances | Close-Approach Data ]
ABOUT SSD CREDITS/AWARDS PRIVACY/COPYRIGHT GLOSSARY LINKS
FirstGov 2020-Jan-26 03:36 UT
(server date/time)  
NASA Home Page
Site Manager:   Ryan S. Park
Webmaster  Alan B. Chamberlin